TimeMST,TemperatureF,Dew PointF,Humidity,Sea Level PressureIn,VisibilityMPH,Wind Direction,Wind SpeedMPH,Gust SpeedMPH,PrecipitationIn,Events,Conditions,WindDirDegrees,DateUTC
12:52 AM,28.9,23.0,78,30.12,10.0,NNW,17.3,-,0.00,,Overcast,330,2013-01-02 07:52:00
1:52 AM,28.9,23.0,78,30.13,10.0,NW,15.0,23.0,N/A,,Overcast,320,2013-01-02 08:52:00
2:52 AM,28.9,19.0,67,30.13,10.0,NW,17.3,-,N/A,,Scattered Clouds,320,2013-01-02 09:52:00
3:52 AM,30.0,19.0,64,30.13,10.0,NW,18.4,26.5,N/A,,Overcast,320,2013-01-02 10:52:00
4:52 AM,28.4,21.2,74,30.04,7.0,NNW,18.4,25.3,N/A,Snow,Light Snow,330,2013-01-02 11:52:00
5:52 AM,27.0,21.9,81,30.16,4.0,NNW,20.7,32.2,0.00,Snow,Light Snow,330,2013-01-02 12:52:00
5:56 AM,26.6,21.2,80,30.05,2.5,NNW,20.7,28.8,0.00,Snow,Light Snow,330,2013-01-02 12:56:00
6:04 AM,28.4,21.2,74,30.05,10.0,NW,20.7,28.8,0.00,Snow,Light Snow,320,2013-01-02 13:04:00
6:15 AM,26.6,19.4,74,30.05,10.0,NW,17.3,-,0.00,,Overcast,320,2013-01-02 13:15:00
6:52 AM,27.0,19.0,72,30.15,10.0,NNW,15.0,-,0.00,,Overcast,330,2013-01-02 13:52:00
7:52 AM,28.4,19.4,69,30.04,10.0,NW,19.6,-,N/A,,Overcast,320,2013-01-02 14:52:00
8:52 AM,28.9,19.9,69,30.17,10.0,NW,19.6,25.3,N/A,,Overcast,320,2013-01-02 15:52:00
9:52 AM,30.0,19.0,64,30.18,10.0,NW,17.3,24.2,N/A,,Mostly Cloudy,320,2013-01-02 16:52:00
10:52 AM,28.9,19.9,69,30.18,10.0,NNW,19.6,26.5,N/A,,Scattered Clouds,330,2013-01-02 17:52:00
11:52 AM,30.0,19.0,64,30.15,10.0,NNW,13.8,-,N/A,,Overcast,340,2013-01-02 18:52:00
12:52 PM,28.9,16.0,58,30.15,10.0,NNW,26.5,40.3,N/A,,Overcast,340,2013-01-02 19:52:00
1:22 PM,24.8,19.4,80,30.07,1.8,NNW,32.2,42.6,0.00,Snow,Light Snow,340,2013-01-02 20:22:00
1:45 PM,23.0,19.4,86,30.08,1.2,NNW,32.2,41.4,0.00,Snow,Blowing Snow,340,2013-01-02 20:45:00
1:52 PM,23.0,19.0,85,30.20,1.0,NNW,28.8,41.4,0.00,Snow,Blowing Snow,330,2013-01-02 20:52:00
2:08 PM,24.8,17.6,74,30.09,2.5,NNW,33.4,42.6,0.00,Snow,Light Snow,330,2013-01-02 21:08:00
2:16 PM,24.8,17.6,74,30.09,4.0,NNW,28.8,41.4,0.00,Snow,Light Snow,330,2013-01-02 21:16:00
2:52 PM,24.1,17.1,75,30.22,10.0,NNW,27.6,33.4,0.00,,Overcast,330,2013-01-02 21:52:00
3:52 PM,23.0,16.0,74,30.27,10.0,NNW,27.6,35.7,0.00,Snow,Light Snow,330,2013-01-02 22:52:00
4:52 PM,21.9,17.1,82,30.30,7.0,NNW,24.2,32.2,0.00,Snow,Light Snow,330,2013-01-02 23:52:00
5:05 PM,21.2,17.6,86,30.18,9.0,NNW,23.0,34.5,0.00,,Overcast,330,2013-01-03 00:05:00
5:52 PM,21.9,16.0,78,30.32,9.0,NNW,24.2,32.2,0.00,Snow,Light Snow,330,2013-01-03 00:52:00
6:02 PM,21.2,15.8,80,30.20,9.0,NNW,20.7,29.9,0.00,,Overcast,330,2013-01-03 01:02:00
6:52 PM,21.9,16.0,78,30.35,10.0,NNW,23.0,29.9,0.00,,Overcast,330,2013-01-03 01:52:00
7:52 PM,21.9,15.1,75,30.36,10.0,NNW,16.1,-,N/A,,Overcast,340,2013-01-03 02:52:00
8:52 PM,21.9,14.0,72,30.38,10.0,NNW,12.7,-,N/A,,Overcast,330,2013-01-03 03:52:00
9:52 PM,21.9,14.0,72,30.39,10.0,NNW,20.7,26.5,N/A,,Overcast,330,2013-01-03 04:52:00
10:18 PM,21.2,14.0,74,30.27,10.0,NNW,17.3,-,0.00,,Overcast,330,2013-01-03 05:18:00
10:52 PM,21.0,15.1,78,30.41,10.0,NNW,13.8,-,0.00,,Overcast,330,2013-01-03 05:52:00
11:52 PM,21.2,15.8,80,30.28,10.0,NNW,15.0,-,N/A,,Overcast,340,2013-01-03 06:52:00